measurement_time,temperature,humidity
1503192428,30.06,57.07
1503192488,30.02,56.67
1503192548,30.05,56.96
1503192608,30.05,56.77
1503192668,30.03,57.05
1503192728,30.01,56.63
1503192788,30.03,56.42
1503192848,30.04,56.29
1503192908,30.02,56.27
1503192968,30.05,56.24
1503193028,30.06,56.35
1503193088,30.05,56.24
1503193148,30.05,56.43
1503193208,30.08,56.34
1503193268,30.12,56.51
1503193328,30.13,56.24
1503193388,30.15,56.34
1503193448,30.10,56.24
1503193508,30.12,56.27
1503193568,30.11,56.44
1503193628,30.07,56.44
1503193688,30.03,56.45
1503193748,30.00,56.45
1503193808,29.97,57.01
1503193868,29.93,57.90
1503193928,29.78,58.79
1503193988,29.68,58.39
1503194048,29.71,58.00
1503194108,29.73,57.86
1503194168,29.77,57.71
1503194228,29.80,57.58
1503194288,29.81,57.57
1503194348,29.83,58.06
1503194408,29.75,58.99
1503194468,29.59,59.43
1503194528,29.47,59.76
1503194588,29.46,58.95
1503194648,29.53,58.60
1503194708,29.58,58.41
1503194768,29.61,58.46
1503194828,29.60,58.25
1503194888,29.65,58.43
1503194948,29.63,58.38
1503195008,29.63,58.21
1503195068,29.70,58.53
1503195128,29.66,58.76
1503195188,29.60,59.33
1503195248,29.49,59.92
1503195308,29.35,59.94
1503195368,29.33,59.68
1503195428,29.33,59.52
1503195488,29.30,60.39
1503195548,29.13,61.16
1503195608,29.02,61.65
1503195668,28.95,61.63
1503195728,28.94,62.13
1503195788,28.90,62.56
1503195848,28.86,62.18
1503195908,28.89,62.11
1503195968,28.87,62.34
1503196028,28.89,61.95
1503196088,28.94,61.96
1503196148,28.92,62.45
1503196208,28.88,62.46
1503196268,28.85,62.71
1503196328,28.83,62.55
1503196388,28.84,62.21
1503196448,28.86,61.31
1503196508,28.93,61.26
1503196568,28.94,60.94
1503196628,28.98,60.81
1503196688,28.98,60.78
1503196748,29.01,60.78
1503196808,29.02,60.68
1503196868,29.04,60.49
1503196928,29.07,60.41
1503196988,29.13,60.35
1503197048,29.15,60.46
1503197108,29.16,60.32
1503197168,29.20,60.33
1503197228,29.20,60.36
1503197288,29.24,60.34
1503197348,29.23,60.25
1503197408,29.29,60.17
1503197468,29.32,61.12
1503197528,29.19,61.09
1503197588,29.20,60.99
1503197648,29.21,61.21
1503197708,29.19,61.24
1503197768,29.16,60.81
1503197828,29.13,60.97
1503197888,29.17,60.73
1503197948,29.11,62.02
1503198008,28.98,61.32
1503198068,28.97,61.19
1503198128,28.98,61.26
1503198188,29.01,61.53
1503198248,29.02,61.52
1503198308,28.97,62.77
1503198368,28.80,62.81
1503198428,28.79,62.26
1503198488,28.85,62.12
1503198548,28.83,62.81
1503198608,28.79,63.05
1503198668,28.73,63.23
1503198728,28.76,63.21
1503198788,28.86,62.65
1503198848,28.90,62.20
1503198908,28.89,61.91
1503198968,28.84,61.92
1503199028,28.82,62.04
1503199088,28.74,62.05
1503199148,28.75,62.11
1503199208,28.74,62.10
1503199268,28.73,62.30
1503199328,28.71,62.58
1503199388,28.56,63.42
1503199448,28.40,63.39
1503199508,28.37,63.20
1503199568,28.34,63.06
1503199628,28.32,63.03
1503199688,28.30,62.94
1503199748,28.32,63.18
1503199808,28.27,63.23
1503199868,28.21,63.48
1503199928,28.13,64.19
1503199988,28.05,63.93
1503200048,28.03,63.61
1503200108,28.05,63.65
1503200168,28.04,63.64
1503200228,28.12,63.83
1503200288,28.33,63.43
1503200348,28.43,63.15
1503200408,28.40,62.91
1503200468,28.33,63.65
1503200528,28.32,63.61
1503200588,28.30,63.28
1503200648,28.31,63.39
1503200708,28.31,63.34
1503200768,28.31,63.21
1503200828,28.32,63.29
1503200888,28.31,63.07
1503200948,28.34,63.13
1503201008,28.32,63.03
1503201068,28.34,63.03
1503201128,28.34,63.15
1503201188,28.33,63.71
1503201248,28.27,63.55
1503201308,28.27,63.61
1503201368,28.28,63.54
1503201428,28.25,64.10
1503201488,28.23,64.04
1503201548,28.13,64.42
1503201608,28.08,64.47
1503201668,28.03,64.77
1503201728,28.14,64.80
1503201788,28.35,64.26
1503201848,28.50,64.35
1503201908,28.48,64.28
1503201968,28.41,64.50
1503202028,28.34,64.22
1503202088,28.32,63.89
1503202148,28.27,63.72
1503202208,28.13,64.06
1503202268,27.99,64.40
1503202328,27.87,64.55
1503202388,27.80,64.63
1503202448,27.79,64.73
1503202508,28.00,64.71
1503202568,28.06,64.39
1503202628,28.02,64.14
1503202688,27.94,64.32
1503202748,27.99,64.38
1503202808,28.00,64.33
1503202868,27.95,64.41
1503202928,27.89,64.56
1503202988,27.88,65.29
1503203048,27.74,65.42
1503203108,27.66,65.67
1503203168,27.66,66.15
1503203228,27.57,65.74
1503203288,27.60,65.74
1503203348,27.68,65.97
1503203408,27.66,66.41
1503203468,27.61,66.34
1503203528,27.64,66.52
1503203588,27.42,66.41
1503203648,27.28,66.52
1503203708,27.43,66.50
1503203768,27.68,65.77
1503203828,27.54,65.70
1503203888,27.47,66.17
1503203948,27.59,66.83
1503204008,27.93,65.93
1503204068,28.16,65.14
1503204128,28.27,64.81
1503204188,28.30,64.68
1503204248,28.31,64.51
1503204308,28.27,64.29
1503204368,28.24,64.19
1503204428,28.25,64.13
1503204488,28.25,64.04
1503204548,28.19,64.27
1503204608,28.14,64.27
1503204668,28.09,64.56
1503204728,28.05,64.51
1503204788,28.00,64.51
1503204848,27.99,64.54
1503204908,28.00,64.84
1503204968,28.00,64.77
1503205028,27.98,65.28
1503205088,27.89,65.26
1503205148,27.86,65.56
1503205208,27.79,65.96
1503205268,27.70,66.18
1503205328,27.65,66.27
1503205388,27.57,66.13
1503205448,27.57,65.98
1503205508,27.57,65.81
1503205568,27.59,66.07
1503205628,27.55,66.82
1503205688,27.49,66.46
1503205748,27.52,66.34
1503205808,27.55,66.09
1503205868,27.55,66.03
1503205928,27.58,66.25
1503205988,27.58,66.18
1503206048,27.66,66.10
1503206108,27.63,66.40
1503206168,27.57,66.64
1503206228,27.34,67.18
1503206288,27.20,67.67
1503206348,27.09,68.04
1503206408,27.10,67.67
1503206468,27.13,67.47
1503206528,27.15,67.25
1503206588,27.22,67.15
1503206648,27.26,67.07
1503206708,27.28,66.98
1503206768,27.36,66.96
1503206828,27.40,66.83
1503206888,27.40,66.75
1503206948,27.42,66.80
1503207008,27.44,66.80
1503207068,27.41,66.69
1503207128,27.38,66.64
1503207188,27.39,66.63
1503207248,27.36,66.67
1503207308,27.39,66.73
1503207368,27.40,66.72
1503207428,27.40,66.70
1503207488,27.40,66.66
1503207548,27.40,66.69
1503207608,27.37,66.85
1503207668,27.30,66.96
1503207728,27.27,66.87
1503207788,27.25,66.87
1503207848,27.23,66.82
1503207908,27.19,66.90
1503207968,27.16,66.81
1503208028,27.14,67.00
1503208088,27.09,67.14
1503208148,27.06,67.08
1503208208,27.07,67.15
1503208268,27.04,67.40
1503208328,27.00,67.36
1503208388,27.02,67.41
1503208448,27.01,67.36
1503208508,27.04,67.34
1503208568,27.06,67.31
1503208628,27.07,67.28
1503208688,27.06,67.61
1503208748,26.98,67.64
1503208808,26.93,68.25
1503208868,26.83,67.99
1503208928,26.83,67.95
1503208988,26.90,67.98
1503209048,26.95,67.83
1503209108,26.95,67.94
1503209168,26.93,67.81
1503209228,26.90,67.76
1503209288,26.93,67.94
1503209348,26.90,67.83
1503209408,26.92,67.71
1503209468,26.92,67.76
1503209528,26.93,67.68
1503209588,26.95,67.55
1503209648,26.97,67.50
1503209708,26.97,67.47
1503209768,26.98,67.42
1503209828,26.98,67.44
1503209888,26.96,67.52
1503209948,26.92,67.90
1503210008,26.83,67.73
1503210068,26.85,67.73
1503210128,26.84,67.64
1503210188,26.87,67.64
1503210248,26.84,67.69
1503210308,26.81,67.61
1503210368,26.81,67.73
1503210428,26.71,67.86
1503210488,26.67,68.00
1503210548,26.68,67.93
1503210608,26.69,67.83
1503210668,26.65,67.80
1503210728,26.68,67.80
1503210788,26.66,67.85
1503210848,26.65,67.71
1503210908,26.63,67.64
1503210968,26.60,67.68
1503211028,26.63,67.81
1503211088,26.62,67.72
1503211148,26.64,67.85
1503211208,26.62,67.80
1503211349,26.57,67.92
1503211409,26.51,67.89
1503211469,26.51,68.02
1503211529,26.49,67.99
1503211589,26.49,68.12
1503211649,26.51,67.97
1503211709,26.50,68.05
1503211769,26.48,68.19
1503211829,26.39,68.27
1503211889,26.34,68.39
1503211949,26.33,68.41
1503212009,26.35,68.28
1503212069,26.33,68.38
1503212129,26.34,68.33
1503212189,26.34,68.51
1503212249,26.34,68.41
1503212309,26.34,68.38
1503212369,26.35,68.28
1503212429,26.30,68.56
1503212489,26.28,68.39
1503212549,26.30,68.43
1503212609,26.30,68.40
1503212669,26.34,68.35
1503212729,26.33,68.38
1503212789,26.31,68.37
1503212849,26.30,68.32
1503212909,26.27,68.38
1503212969,26.26,68.47
1503213029,26.23,68.49
1503213089,26.15,68.63
1503213149,26.12,68.77
1503213209,26.12,68.76
1503213269,26.13,68.88
1503213329,26.15,68.95
1503213389,26.12,69.01
1503213449,26.02,69.44
1503213509,25.93,69.37
1503213569,25.95,69.49
1503213629,25.97,69.41
1503213689,26.01,69.37
1503213749,25.99,69.28
1503213809,26.02,69.38
1503213869,26.02,69.21
1503213929,26.03,69.28
1503213989,26.01,69.52
1503214049,25.99,69.34
1503214109,26.02,69.49
1503214169,26.01,69.62
1503214229,26.01,69.50
1503214289,26.06,69.41
1503214349,26.06,69.28
1503214409,26.10,69.16
1503214469,26.09,69.08
1503214529,26.08,69.05
1503214589,26.08,69.10
1503214649,26.07,69.03
1503214709,26.09,69.15
1503214769,26.12,69.06
1503214829,26.11,69.05
1503214889,26.11,69.06
1503214949,26.15,69.12
1503215009,26.11,69.14
1503215069,26.11,69.35
1503215129,26.11,69.29
1503215189,26.10,69.42
1503215249,26.10,69.33
1503215309,26.08,69.41
1503215369,26.11,69.86
1503215429,26.06,69.50
1503215489,26.08,69.78
1503215549,26.07,69.70
1503215609,26.08,69.61
1503215669,26.12,69.50
1503215729,26.11,69.59
1503215789,26.09,69.76
1503215849,26.03,69.70
1503215909,26.07,69.70
1503215969,26.11,69.60
1503216029,26.13,69.50
1503216089,26.13,69.41
1503216149,26.11,69.59
1503216209,26.07,69.52
1503216269,26.08,69.54
1503216329,26.12,69.50
1503216389,26.12,69.55
1503216449,26.09,69.49
1503216509,26.11,69.62
1503216569,26.10,69.57
1503216629,26.11,69.54
1503216689,26.13,69.57
1503216749,26.16,69.48
1503216809,26.13,69.55
1503216869,26.10,69.62
1503216929,26.07,69.92
1503216989,26.01,69.85
1503217049,25.99,69.86
1503217109,25.98,69.88
1503217169,25.96,69.99
1503217229,25.97,70.07
1503217289,25.98,70.01
1503217349,25.98,70.21
1503217409,25.93,70.28
1503217469,25.93,70.21
1503217529,25.92,70.44
1503217589,25.90,70.31
1503217649,25.94,70.27
1503217709,25.94,70.27
1503217769,25.96,70.19
1503217829,25.97,70.26
1503217889,25.94,70.25
1503217949,25.96,70.24
1503218009,25.97,70.18
1503218069,25.98,70.20
1503218129,25.98,70.15
1503218189,26.01,70.18
1503218249,26.02,70.34
1503218309,26.01,70.25
1503218369,26.01,70.42
1503218429,25.99,70.32
1503218489,25.99,70.42
1503218549,25.99,70.45
1503218609,25.98,70.53
1503218669,25.92,70.92
1503218729,25.86,70.83
1503218789,25.84,71.07
1503218849,25.82,71.03
1503218909,25.86,70.97
1503218969,25.83,71.18
1503219029,25.80,71.08
1503219089,25.83,71.21
1503219149,25.81,71.23
1503219209,25.82,71.19
1503219269,25.86,71.34
1503219329,25.84,71.21
1503219389,25.84,71.43
1503219449,25.83,71.30
1503219509,25.88,71.27
1503219569,25.92,71.25
1503219629,25.90,71.22
1503219689,25.92,71.37
1503219749,25.76,72.88
1503219809,25.59,72.44
1503219869,25.66,72.41
1503219929,25.77,72.19
1503219989,25.80,72.24
1503220049,25.77,72.11
1503220109,25.78,72.21
1503220169,25.79,72.04
1503220229,25.81,71.92
1503220289,25.86,71.75
1503220349,25.89,71.75
1503220409,25.86,71.70
1503220469,25.86,71.72
1503220529,25.93,71.86
1503220589,25.78,71.92
1503220649,25.62,72.46
1503220709,25.95,72.31
1503220769,26.10,71.92
1503220829,26.23,71.49
1503220889,26.31,71.47
1503220949,26.32,71.13
1503221009,26.35,70.93
1503221069,26.37,70.76
1503221129,26.37,70.73
1503221189,26.37,70.84
1503221249,26.34,70.69
1503221309,26.37,70.57
1503221369,26.37,70.74
1503221429,26.32,70.67
1503221489,26.35,70.58
1503221549,26.32,70.53
1503221609,26.33,70.60
1503221669,26.34,70.67
1503221729,26.27,70.76
1503221789,26.23,70.78
1503221849,26.22,70.96
1503221909,26.21,71.15
1503221969,26.20,71.06
1503222029,26.24,70.99
1503222089,26.31,70.92
1503222149,26.40,70.81
1503222209,26.45,70.66
1503222269,26.46,70.50
1503222329,26.46,70.52
1503222389,26.43,70.52
1503222449,26.45,70.50
1503222509,26.41,70.44
1503222569,26.27,71.28
1503222629,26.11,71.08
1503222689,26.10,71.33
1503222749,26.11,71.36
1503222809,26.17,71.37
1503222869,26.13,71.27
1503222929,26.17,71.24
1503222989,26.21,71.21
1503223049,26.23,71.23
1503223109,26.15,71.57
1503223169,26.02,71.42
1503223229,26.05,71.51
1503223289,26.02,71.63
1503223349,25.97,71.67
1503223409,25.99,71.73
1503223469,25.91,72.30
1503223529,25.75,72.27
1503223589,25.76,72.32
1503223649,25.77,72.49
1503223709,25.80,72.24
1503223769,25.78,72.64
1503223829,25.78,72.54
1503223889,25.78,72.61
1503223949,25.80,72.66
1503224009,25.82,72.50
1503224069,25.86,72.50
1503224129,25.88,72.47
1503224189,25.88,72.47
1503224249,25.88,72.38
1503224309,25.76,72.79
1503224369,25.71,72.71
1503224429,25.72,72.89
1503224489,25.69,73.27
1503224549,25.67,73.11
1503224609,25.68,73.18
1503224669,25.72,73.40
1503224729,25.66,73.16
1503224789,25.67,73.16
1503224849,25.63,73.35
1503224909,25.59,73.31
1503224969,25.64,73.33
1503225029,25.66,73.71
1503225089,25.61,73.36
1503225149,25.68,73.43
1503225209,25.71,73.17
1503225269,25.72,73.33
1503225329,25.60,73.86
1503225389,25.47,73.87
1503225449,25.56,73.90
1503225509,25.56,73.97
1503225569,25.61,73.82
1503225629,25.64,73.75
1503225689,25.71,73.57
1503225749,25.68,73.72
1503225809,25.64,73.62
1503225869,25.67,73.58
1503225929,25.57,74.61
1503225989,25.40,74.37
1503226049,25.48,74.32
1503226109,25.53,74.26
1503226169,25.65,74.07
1503226229,25.63,74.09
1503226289,25.68,73.99
1503226349,25.73,73.83
1503226409,25.77,73.58
1503226469,25.84,73.38
1503226529,25.89,73.25
1503226589,25.88,73.14
1503226649,25.87,73.06
1503226709,25.86,73.24
1503226769,25.80,73.20
1503226829,25.79,73.41
1503226889,25.71,73.49
1503226949,25.67,73.72
1503227009,25.62,73.78
1503227069,25.66,73.72
1503227129,25.74,73.65
1503227189,25.71,73.72
1503227249,25.73,73.58
1503227309,25.79,73.52
1503227369,25.77,73.51
1503227429,25.79,73.45
1503227489,25.84,73.30
1503227549,25.86,73.15
1503227609,25.84,73.14
1503227669,25.83,73.29
1503227729,25.86,73.16
1503227789,25.87,73.07
1503227849,25.88,73.10
1503227909,25.86,73.14
1503227969,25.86,73.01
1503228029,25.88,72.98
1503228089,25.90,72.95
1503228149,25.89,73.28
1503228209,25.79,73.32
1503228269,25.74,73.59
1503228329,25.71,73.57
1503228389,25.74,73.54
1503228449,25.75,73.72
1503228509,25.76,73.97
1503228569,25.62,74.04
1503228629,25.65,73.99
1503228689,25.72,73.78
1503228749,25.78,73.70
1503228809,25.78,73.65
1503228869,25.79,73.75
1503228929,25.75,73.69
1503228989,25.72,73.65
1503229049,25.71,73.72
1503229109,25.75,73.83
1503229169,25.73,73.81
1503229229,25.75,73.72
1503229289,25.77,73.81
1503229349,25.68,74.12
1503229409,25.66,74.04
1503229469,25.74,73.95
1503229529,25.76,73.84
1503229589,25.78,73.81
1503229649,25.79,73.75
1503229709,25.76,73.95
1503229769,25.76,73.98
1503229829,25.76,74.27
1503229889,25.59,74.49
1503229949,25.45,74.84
1503230009,25.40,75.29
1503230069,25.32,75.52
1503230129,25.30,75.58
1503230189,25.25,75.71
1503230249,25.30,75.67
1503230309,25.34,75.46
1503230369,25.42,75.27
1503230429,25.49,75.04
1503230489,25.54,75.01
1503230549,25.61,75.01
1503230609,25.54,75.28
1503230669,25.46,75.73
1503230729,25.33,75.92
1503230789,25.28,76.12
1503230849,25.35,75.97
1503230909,25.43,76.07
1503230969,25.46,75.79
1503231029,25.53,75.99
1503231089,25.43,75.91
1503231149,25.50,75.81
1503231209,25.58,75.66
1503231269,25.67,75.44
1503231329,25.73,75.19
1503231389,25.77,74.97
1503231449,25.81,74.91
1503231509,25.80,74.85
1503231569,25.64,76.13
1503231629,24.92,78.97
1503231689,24.36,81.74
1503231749,24.29,81.60
1503231809,24.29,82.50
1503231869,24.36,81.75
1503231929,24.45,80.49
1503231989,24.10,78.90
1503232049,24.01,79.49
1503232109,23.95,79.24
1503232169,23.87,79.29
1503232229,23.96,78.93
1503232289,23.83,77.69
1503232349,23.80,77.73
1503232409,23.87,77.58
1503232469,23.86,77.03
1503232529,23.90,76.94
1503232589,23.84,76.51
1503232649,23.80,76.58
1503232709,23.83,76.51
1503232769,23.88,76.37
1503232829,23.85,75.65
1503232889,23.77,76.13
1503232949,23.76,75.99
1503233009,23.77,75.90
1503233069,23.75,75.81
1503233129,23.75,75.93
1503233189,23.80,76.10
1503233249,23.69,75.25
1503233309,23.66,75.57
1503233369,23.67,75.53
1503233429,23.70,75.73
1503233489,23.70,75.20
1503233549,23.72,75.41
1503233609,23.76,75.68
1503233669,23.76,75.71
1503233729,23.76,75.71
1503233789,23.84,75.74
1503233849,23.92,75.59
1503233909,23.90,75.44
1503233969,23.97,75.44
1503234029,23.84,75.44
1503234089,23.76,75.34
1503234149,23.74,74.84
1503234209,23.54,75.23
1503234269,23.61,75.33
1503234329,23.69,75.03
1503234389,23.64,74.79
1503234449,23.51,75.14
1503234509,23.45,75.13
1503234569,23.43,75.16
1503234629,23.30,75.55
1503234689,23.35,75.65
1503234749,23.46,75.65
1503234809,23.45,75.36
1503234869,23.42,75.03
1503234929,23.39,74.54
1503234989,23.30,74.65
1503235049,23.32,74.88
1503235109,23.39,74.90
1503235169,23.49,74.74
1503235229,23.57,74.56
1503235289,23.68,74.34
1503235349,23.73,74.15
1503235409,23.79,73.98
1503235469,23.81,73.28
1503235529,23.64,73.17
1503235589,23.58,73.70
1503235649,23.53,73.33
1503235709,23.45,73.78
1503235769,23.38,73.87
1503235829,23.36,74.29
1503235889,23.20,74.30
1503235949,23.28,74.55
1503236009,23.51,74.60
1503236069,23.75,74.27
1503236129,23.83,73.75
1503236189,23.97,73.84
1503236249,24.12,73.23
1503236309,24.14,72.90
1503236369,24.15,73.20
1503236429,24.04,73.45
1503236489,24.16,71.31
1503236549,24.19,71.98
1503236609,24.18,71.78
1503236669,24.14,72.17
1503236729,24.14,71.69
1503236789,24.10,72.19
1503236849,24.23,72.62
1503236909,24.41,72.83
1503236969,24.62,72.80
1503237029,24.84,72.34
1503237089,24.94,71.34
1503237149,24.93,70.77
1503237209,24.98,70.73
1503237269,25.01,71.21
1503237329,25.13,71.24
1503237389,25.33,71.45
1503237449,25.44,71.46
1503237509,25.42,70.79
1503237569,25.51,70.87
1503237629,25.60,70.40
1503237689,25.57,69.95
1503237749,25.44,68.42
1503237809,25.48,68.94
1503237869,25.53,69.53
1503237929,25.61,69.61
1503237989,25.66,68.60
1503238049,25.67,68.10
1503238109,25.75,68.87
1503238169,25.75,68.65
1503238229,25.69,68.46
1503238289,25.57,67.67
1503238349,25.48,68.17
1503238409,25.59,68.70
1503238469,25.67,68.25
1503238529,25.74,67.70
1503238589,25.81,68.25
1503238649,25.82,67.76
1503238709,25.86,67.55
1503238769,25.91,67.42
1503238829,25.99,68.13
1503238889,26.03,67.62
1503238949,26.17,67.13
1503239009,26.30,66.73
1503239069,26.39,66.58
1503239129,26.40,66.05
1503239189,26.34,65.51
1503239249,26.19,65.53
1503239309,26.15,66.20
1503239369,26.08,66.32
1503239429,26.13,66.92
1503239489,26.13,66.49
1503239549,26.16,66.46
1503239609,26.09,67.02
1503239669,26.08,67.09
1503239729,26.17,67.07
1503239789,26.12,65.45
1503239849,26.13,66.33
1503239909,26.12,65.96
1503239969,26.03,66.45
1503240029,26.06,66.57
1503240089,25.98,66.63
1503240149,25.94,66.44
1503240209,25.88,66.20
1503240269,25.83,66.20
1503240329,25.75,66.11
1503240389,25.68,66.41
1503240449,25.59,65.99
1503240509,25.38,66.76
1503240569,25.25,67.21
1503240629,25.17,68.63
1503240689,25.13,67.49
1503240749,25.06,67.76
1503240809,25.09,67.88
1503240869,25.13,68.30
1503240929,25.06,68.65
1503240989,24.95,68.57
1503241049,24.93,68.41
1503241109,24.92,68.37
1503241169,24.97,68.46
1503241229,24.97,68.55
1503241289,25.01,68.54
1503241349,25.04,68.55
1503241409,25.04,68.52
1503241469,25.03,68.61
1503241529,25.01,68.74
1503241589,24.94,68.85
1503241649,24.94,69.28
1503241709,24.86,69.77
1503241769,24.80,70.37
1503241829,24.80,70.51
1503241889,24.65,70.43
1503241949,24.56,70.18
1503242009,24.59,70.40
1503242069,24.66,70.56
1503242129,24.66,70.91
1503242189,24.60,70.98
1503242249,24.59,71.21
1503242309,24.62,71.09
1503242369,24.66,70.95
1503242429,24.75,71.04
1503242489,24.76,71.47
1503242549,24.77,71.46
1503242609,24.69,71.21
1503242669,24.70,70.99
1503242729,24.71,71.01
1503242789,24.73,71.12
1503242849,24.79,70.90
1503242909,24.82,70.90
1503242969,24.78,71.14
1503243029,24.76,71.22
1503243089,24.78,71.26
1503243149,24.86,71.30
1503243209,24.91,71.14
1503243269,24.94,70.84
1503243329,24.89,70.42
1503243389,24.71,70.36
1503243449,24.68,70.69
1503243509,24.65,70.85
1503243569,24.59,72.32
1503243629,24.53,73.75
1503243689,24.35,73.92
1503243749,24.26,73.92
1503243809,24.21,74.15
1503243869,24.24,73.83
1503243929,24.36,73.62
1503243989,24.49,73.37
1503244049,24.56,73.33
1503244109,24.50,73.92
1503244169,24.49,73.65
1503244229,24.59,73.52
1503244289,24.69,73.26
1503244349,24.80,73.07
1503244409,24.88,72.78
1503244469,24.91,72.30
1503244529,24.95,72.24
1503244589,24.98,72.04
1503244649,24.98,72.44
1503244709,24.97,72.30
1503244769,25.03,72.58
1503244829,24.93,72.71
1503244889,24.86,72.82
1503244949,24.89,72.75
1503245009,24.93,72.73
1503245069,24.98,72.77
1503245129,25.06,72.85
1503245189,25.04,72.79
1503245249,25.06,72.66
1503245309,25.12,72.35
1503245369,25.06,72.16
1503245429,24.99,71.94
1503245489,24.88,72.04
1503245549,24.86,73.01
1503245609,24.88,73.64
1503245669,25.01,73.49
1503245729,25.13,73.31
1503245789,25.19,73.86
1503245849,25.19,73.97
1503245909,25.13,73.93
1503245969,25.15,74.35
1503246029,25.22,74.12
1503246089,25.25,72.66
1503246149,25.28,73.26
1503246209,25.39,73.44
1503246269,25.54,73.50
1503246329,25.72,72.72
1503246389,25.86,72.40
1503246449,26.09,71.82
1503246509,26.11,69.78
1503246569,26.32,70.79
1503246629,26.48,68.61
1503246689,26.55,68.55
1503246749,26.68,68.99
1503246809,26.82,66.93
1503246869,26.81,66.03
1503246929,27.00,66.69
1503246989,27.23,66.48
1503247049,27.30,65.01
1503247109,27.30,65.13
1503247169,27.41,66.07
1503247229,27.64,65.77
1503247289,27.83,66.99
1503247349,27.93,65.12
1503247409,27.95,65.35
1503247469,28.02,65.16
1503247529,28.06,65.32
1503247589,28.08,65.08
1503247649,27.95,62.61
1503247709,27.69,63.87
1503247769,27.55,64.76
1503247829,27.50,64.29
1503247889,27.43,64.09
1503247949,27.28,63.19
1503248009,27.09,64.00
1503248069,27.08,65.22
1503248129,27.17,64.56
1503248189,27.37,65.64
1503248249,27.53,64.14
1503248309,27.68,64.10
1503248369,27.80,64.23
1503248429,27.90,64.63
1503248489,28.04,64.50
1503248549,28.12,63.92
1503248609,28.20,63.74
1503248669,28.23,63.48
1503248729,28.24,63.48
1503248789,28.15,61.58
1503248849,28.04,62.36
1503248909,27.94,62.96
1503248969,27.84,63.24
1503249029,27.87,64.06
1503249089,27.94,63.95
1503249149,28.00,63.71
1503249209,28.01,63.58
1503249269,28.12,64.70
1503249329,28.25,64.48
1503249389,28.37,64.23
1503249449,28.34,63.27
1503249509,28.29,63.23
1503249569,28.29,64.19
1503249629,28.39,63.42
1503249689,28.40,63.71
1503249749,28.39,62.93
1503249809,28.39,63.26
1503249869,28.37,61.42
1503249929,28.24,61.93
1503249989,28.30,62.51
1503250049,28.39,62.85
1503250109,28.47,62.90
1503250169,28.53,62.87
1503250229,28.53,63.13
1503250289,28.47,62.04
1503250349,28.52,63.81
1503250409,28.65,63.82
1503250469,28.67,62.90
1503250529,28.71,62.17
1503250589,28.73,62.90
1503250649,28.77,62.26
1503250709,28.74,62.04
1503250769,28.83,62.52
1503250829,28.93,62.81
1503250889,28.98,62.33
1503250949,29.07,62.76
1503251009,29.09,62.81
1503251069,29.17,62.65
1503251129,29.26,62.58
1503251189,29.35,62.23
1503251249,29.45,62.18
1503251309,29.52,62.29
1503251369,29.58,61.26
1503251429,29.64,61.54
1503251489,29.67,61.58
1503251549,29.75,62.35
1503251609,29.75,60.88
1503251669,29.79,61.15
1503251729,29.85,61.20
1503251789,29.88,60.03
1503251849,29.81,59.15
1503251909,29.87,60.30
1503251969,30.01,60.55
1503252029,30.01,59.85
1503252089,30.05,59.88
1503252149,30.02,58.51
1503252209,29.98,59.17
1503252269,29.93,59.91
1503252329,29.95,59.73
1503252389,29.92,59.94
1503252449,29.95,60.37
1503252509,29.95,59.35
1503252569,29.88,57.87
1503252629,29.90,59.53
1503252689,30.03,60.68
1503252749,30.18,60.92
1503252809,30.18,58.21
1503252869,30.17,59.27
1503252929,30.20,58.75
1503252989,30.19,59.76
1503253049,30.19,58.68
1503253109,30.15,59.75
1503253169,30.21,61.35
1503253229,30.24,60.38
1503253289,30.25,60.33
1503253349,30.25,61.02
1503253409,30.25,61.01
1503253469,30.27,60.67
1503253529,30.27,61.46
1503253589,30.26,62.62
1503253649,30.34,63.41
1503253709,30.42,62.12
1503253769,30.46,62.03
1503253829,30.55,62.44
1503253889,30.60,62.33
1503253949,30.51,60.63
1503254009,30.40,59.84
1503254069,30.38,60.63
1503254129,30.42,60.79
1503254189,30.36,60.87
1503254249,30.36,59.98
1503254309,30.45,61.23
1503254369,30.51,61.11
1503254429,30.49,59.85
1503254489,30.41,60.20
1503254549,30.31,59.15
1503254609,30.30,59.33
1503254669,30.36,59.72
1503254729,30.40,59.01
1503254789,30.45,59.60
1503254849,30.46,59.80
1503254909,30.46,59.01